This is the latest recevied weather packets stored in our database for station/object KF6ILA. If no packets are shown the sender has not sent any weather packets the latest 10 day(s).
| Time | Temp. | Humidity | Pressure | Rain* | Wind** | Luminosity | Snow |
|---|---|---|---|---|---|---|---|
| 1787575079 | 23.33° C | 21% | 1018.3 hPa | 0 mm | - | 0 W/m² | - |
| 1787574782 | 23.33° C | 20% | 1018.1 hPa | 0 mm | - | 0 W/m² | - |
| 1787574188 | 23.33° C | 20% | 1018.1 hPa | 0 mm | - | 0 W/m² | - |
| 1787573891 | 23.33° C | 20% | 1018.1 hPa | 0 mm | - | 0 W/m² | - |
| 1787573594 | 23.33° C | 19% | 1018 hPa | 0 mm | - | 0 W/m² | - |
| 1787573296 | 23.33° C | 20% | 1017.8 hPa | 0 mm | - | 0 W/m² | - |
| 1787573000 | 23.33° C | 21% | 1017.8 hPa | 0 mm | - | 0 W/m² | - |
| 1787572406 | 23.33° C | 21% | 1017.7 hPa | 0 mm | - | 0 W/m² | - |
| 1787572109 | 23.33° C | 21% | 1017.7 hPa | 0 mm | - | 0 W/m² | - |
| 1787571812 | 23.33° C | 21% | 1017.6 hPa | 0 mm | - | 0 W/m² | - |
| 1787571515 | 23.33° C | 22% | 1017.6 hPa | 0 mm | - | 0 W/m² | - |
| 1787571218 | 23.33° C | 23% | 1017.6 hPa | 0 mm | - | 0 W/m² | - |
| 1787570624 | 23.89° C | 25% | 1017.6 hPa | 0 mm | - | 0 W/m² | - |
| 1787570327 | 23.89° C | 26% | 1017.5 hPa | 0 mm | - | 0 W/m² | - |
| 1787570030 | 23.89° C | 26% | 1017.4 hPa | 0 mm | - | 0 W/m² | - |
| 1787569733 | 23.89° C | 27% | 1017.2 hPa | 0 mm | - | 0 W/m² | - |
| 1787569139 | 23.89° C | 33% | 1017.2 hPa | 0 mm | - | 0 W/m² | - |
| 1787568842 | 23.89° C | 34% | 1017.2 hPa | 0 mm | - | 0 W/m² | - |
| 1787568545 | 23.33° C | 37% | 1017 hPa | 0 mm | - | 0 W/m² | - |
| 1787568248 | 23.33° C | 37% | 1017.1 hPa | 0 mm | - | 0 W/m² | - |
| 1787567654 | 23.89° C | 36% | 1017 hPa | 0 mm | - | 0 W/m² | - |
| 1787567357 | 24.44° C | 34% | 1017.1 hPa | 0 mm | - | 0 W/m² | - |
| 1787567060 | 24.44° C | 30% | 1017 hPa | 0 mm | - | 0 W/m² | - |
| 1787566763 | 25° C | 25% | 1017 hPa | 0 mm | - | 0 W/m² | - |
| 1787566466 | 25° C | 24% | 1017 hPa | 0 mm | - | 0 W/m² | - |
* Rain latest hour (hover to see other rain measurements)
** Current wind speed in m/s (hover to see current wind gust speed)